Location: Demmingen
(48.6757°N, 10.4375°E)
Time: 10:07:44
(UTC+00:00)

Cosmos 2082 Rocket - Pass Details

Date: 23 May 2024
Orbit: 832 x 853 km, 71.0° (Epoch: 15 June)

Event Time Altitude Azimuth Distance (km) Brightness Sun altitude
Exits shadow 00:07:01 37° 188° (S) 1,296 2.6 -19.7°
Maximum altitude 00:09:18 72° 114° (ESE) 900 2.2 -19.6°
Drops below altitude 10° 00:15:00 10° 32° (NNE) 2,492 5.7 -19.4°
Sets 00:17:28 0° 30° (NNE) 3,431 6.8 -19.3°
